#timestamp,LO_Frequency,Hit,StdDev 
1629270015.3,286047002.6,Y
1629270035.1,286047002.7,P
1629270036.0,286047002.7,N
1629270055.8,286046999.7,N
1629270075.7,286047002.3,N
1629270095.5,286047002.7,N
1629270115.3,286047001.5,N
1629270135.2,286047002.0,N
1629270155.0,286047002.2,N
1629270155.9,286047002.2,N
1629270175.8,286047002.1,N
1629270195.6,286047001.7,N
1629270215.4,286047003.8,Y
1629270235.3,286047002.2,P
1629270255.1,286047002.1,P
1629270275.8,286047002.3,P
1629270295.7,286047002.1,Y
1629270315.5,286046998.1,P
1629270335.4,286047001.1,N
1629270355.2,286047001.2,N
1629270375.0,286047000.7,N
1629270375.9,286047000.7,N
1629270395.8,286047001.2,N
1629270415.6,286047000.6,N
1629270435.5,286046999.7,N
1629270455.3,286047002.8,N
1629270475.1,286046999.7,N
1629270495.9,286047002.7,N
1629270515.7,286047002.8,N
1629270535.5,286047000.2,N
1629270555.4,286047002.7,N
1629270575.2,286046999.8,N
1629270595.0,286047002.3,N
1629270596.0,286047002.3,N
1629270615.8,286046999.7,N
1629270635.6,286047002.7,N
1629270655.5,286046999.8,N
1629270675.3,286047000.9,N
1629270695.1,286047001.0,N
1629270715.9,286047001.2,N
1629270735.7,286047000.5,N
1629270755.6,286046998.1,N
1629270775.4,286046998.4,N
1629270795.2,286046998.3,N
1629270815.1,286046999.1,N
1629270816.0,286046999.1,N
1629270835.8,286046999.2,N
1629270855.6,286046996.5,N
1629270875.5,286046999.5,N
1629270895.3,286046998.9,N
1629270915.2,286047000.8,N
1629270935.9,286046998.1,N
1629270955.7,286047000.5,N
1629270975.6,286047000.0,N
1629270995.4,286046999.8,N
1629271015.2,286047000.0,N
1629271035.1,286047000.6,N
1629271036.0,286047000.6,N
1629271055.8,286047000.6,N
1629271075.7,286047000.4,N
1629271095.5,286047000.6,N
1629271115.3,286046998.6,N
1629271135.2,286046998.1,N
1629271155.0,286046998.2,N
1629271155.9,286046998.2,N
1629271175.7,286047000.7,N
1629271195.6,286047000.6,N
1629271215.4,286047000.4,N
1629271235.3,286047000.1,N
1629271255.1,286047001.4,N
1629271256.0,286047001.4,N
1629271275.8,286047001.5,N
1629271295.7,286047003.9,Y
1629271315.5,286047003.7,P
1629271335.3,286047003.4,N
1629271355.2,286047004.1,N
1629271375.0,286047004.3,N
1629271375.9,286047004.3,N
1629271395.8,286047002.9,N
1629271415.6,286047003.6,N
1629271435.4,286047003.0,N
1629271455.3,286047005.2,Y
1629271475.1,286047001.5,P
1629271495.8,286047002.7,P
1629271515.7,286047000.6,N
1629271535.5,286047002.3,N
1629271555.4,286046999.8,N
1629271575.2,286047001.6,N
1629271595.0,286047002.2,N
1629271595.9,286047002.2,N
1629271615.8,286047000.1,N
1629271635.6,286047001.1,N
1629271655.5,286047000.7,N
1629271675.3,286046998.3,N
1629271695.1,286046999.5,N
1629271715.9,286046999.6,N
1629271735.7,286046999.5,N
1629271755.5,286046996.9,N
1629271775.4,286046997.3,N
1629271795.2,286046996.5,N
1629271815.1,286046996.8,N
1629271816.0,286046996.8,N
1629271835.8,286046997.5,N
1629271855.7,286046997.8,N
1629271875.5,286046997.2,N
1629271895.3,286046997.1,N
1629271915.2,286046997.3,N
1629271935.0,286046997.6,N
1629271935.9,286046997.6,N
1629271955.7,286046997.6,N
1629271975.6,286046997.2,N
1629271995.4,286046996.9,N
1629272015.3,286046999.2,N
1629272035.1,286046996.7,N
1629272036.0,286046996.7,N
1629272055.8,286046998.0,N
1629272075.7,286046997.5,N
1629272095.5,286046996.7,N
1629272115.3,286046997.8,N
1629272135.2,286046997.0,N
1629272155.0,286046997.3,N
1629272155.9,286046997.3,N
1629272175.8,286046996.7,Y
1629272195.6,286047000.3,P
1629272215.4,286047001.1,N
1629272235.3,286047002.8,N
1629272255.1,286046998.1,N
1629272275.9,286047001.1,N
1629272295.7,286046998.1,N
1629272315.5,286047001.2,N
1629272335.4,286046998.5,N
1629272355.2,286047000.8,N
1629272405.1,286046998.9,E
1629272415.9,286046998.3,N
1629272435.7,286046999.2,P
1629272455.6,286046998.5,P
1629272475.4,286047002.1,Y
1629272495.2,286047002.9,P
1629272515.1,286047006.0,N
1629272516.0,286047006.0,N
1629272535.8,286047004.8,N
1629272555.7,286047007.1,N
1629272575.5,286047008.7,Y
1629272595.3,286047003.8,P
1629272615.2,286047004.1,P
1629272635.9,286047003.2,P
1629272655.7,286047003.5,Y
1629272675.6,286047002.7,P
1629272695.4,286047002.3,P
1629272715.3,286047001.1,N
1629272735.1,286047000.2,N
1629272755.8,286047000.4,N
1629272775.7,286047000.2,N
1629272795.5,286047000.4,N
1629272815.3,286046998.2,N
1629272835.2,286047000.4,N
1629272855.0,286047000.4,N
1629272855.9,286047000.4,N
1629272875.8,286047000.8,N
1629272895.6,286047000.9,N
1629272915.4,286047000.4,N
1629272935.3,286047000.7,N
1629272955.1,286046998.2,N
1629272975.9,286046998.8,N
1629272995.7,286046998.7,N
1629273015.5,286046999.3,N
1629273035.4,286046999.3,N
1629273055.2,286046997.0,N
1629273075.0,286046997.1,N
1629273075.9,286046997.1,N
1629273095.8,286046996.9,N
1629273115.6,286046996.7,N
1629273135.5,286046999.5,N
1629273155.3,286046997.1,N
1629273175.1,286046999.6,N
1629273195.9,286046999.2,N
1629273215.7,286046999.5,N
1629273235.5,286046996.6,N
1629273255.4,286046997.9,N
1629273275.2,286046994.9,Y
1629273295.1,286046997.2,P
1629273296.0,286046997.2,N
1629273315.8,286046997.9,N
1629273335.6,286046996.3,Y
1629273355.5,286046996.9,P
1629273375.3,286046997.3,P
1629273395.1,286046996.9,P
1629273415.9,286046996.8,Y
1629273435.7,286046998.8,P
1629273455.6,286047001.2,N
1629273475.4,286047000.4,N
1629273495.2,286046999.7,N
1629273515.1,286047000.3,N
1629273516.0,286047000.3,N
1629273535.8,286047000.6,N
1629273555.6,286047002.5,N
1629273575.5,286047002.8,N
1629273595.3,286047001.4,N
